Location: Lombard
(41.8800°N, 88.0080°W)
Time: 00:33:14
(UTC-05:00)

Tiros 1 - Pass Details

Date: 05 February 2023
Orbit: 628 x 662 km, 48.4° (Epoch: 20 March)

Event Time Altitude Azimuth Distance (km) Brightness Sun altitude
Rises 21:16:22 0° 183° (S) 2,894 - -45.2°
Reaches altitude 10° 21:20:06 10° 152° (SSE) 1,992 - -45.9°
Maximum altitude 21:21:48 12° 130° (SE) 1,869 - -46.2°
Drops below altitude 10° 21:23:30 10° 108° (ESE) 1,998 - -46.4°
Sets 21:27:15 0° 78° (ENE) 2,913 - -47.1°
